Hourly Data Report for September 16, 2017

All times are specified in Local Standard Time (LST). Add 1 hour to adjust for Daylight Saving Time where and when it is observed.

GRAND MANAN SAR CS
NEW BRUNSWICK

44°42'43.400" N
66°48'06.900" W
78.20 m
8101925
71030
XGM

Download Data

Hourly Data (September 2017)
Hourly Data Report for September 16, 2017
Temp Definition
°C
Dew Point Temp Definition
°C
Rel Hum Definition
%
Wind Dir Definition
10's deg

Wind Spd Definition
km/h
Visibility Definition
km
Stn Press Definition
kPa
Hmdx Definition


Wind Chill Definition


Weather Definition


TIME
00:00 15.8 15.7 99 22 8   101.17     LegendNANA
01:00 16.3 16.1 99 21 5   101.16     LegendNANA
02:00 15.7 15.5 99 20 7   101.14     LegendNANA
03:00 15.1 15.0 99 23 6   101.12     LegendNANA
04:00 15.8 15.7 99 25 4   101.14     LegendNANA
05:00 15.7 15.6 99 28 3   101.15     LegendNANA
06:00 15.7 15.6 99 26 1   101.17     LegendNANA
07:00 16.1 16.0 99 22 3   101.16     LegendNANA
08:00 17.4 17.2 99 21 8   101.12     LegendNANA
09:00 17.4 17.2 99 26 8   101.22     LegendNANA
10:00 17.1 16.9 99 25 6   101.22     LegendNANA
11:00 17.6 17.1 97 23 7   101.19     LegendNANA
12:00 18.3 16.9 91 25 8   101.17     LegendNANA
13:00 18.9 16.0 83 24 10   101.14     LegendNANA
14:00 19.8 15.9 78 26 6   101.11     LegendNANA
15:00 20.5 16.0 75 23 7   101.08 25   LegendNANA
16:00 20.5 15.7 74 22 6   101.07 25   LegendNANA
17:00 19.7 16.0 79 27 5   101.06     LegendNANA
18:00 17.4 15.3 87 22 7   101.08     LegendNANA
19:00 14.8 14.2 96 24 10   101.13     LegendNANA
20:00 14.9 14.6 98 24 10   101.18     LegendNANA
21:00 14.8 14.5 98 25 7   101.17     LegendNANA
22:00 14.6 14.4 99 26 9   101.17     LegendNANA
23:00 13.9 13.7 99 25 7   101.16     LegendNANA

Notes on Data Quality.

Legend

  • E = Estimated
  • M = Missing
  • NA = Not Available
  • ‡ = Partner data that is not subject to review by the National Climate Archives
Date modified: